カタログに戻る

FENGYUN 1C DEB

運用中PO
NORAD 31613·DEBRIS·🇨🇳 China

打ち上げ May 10, 1999 から Taiyuan Satellite Launch Center

Loading…

次のパス (今後24時間)

TLE

最新Source: Space-Track

元期: Sep 13, 2026, 21:02 UTC

1 31613U 99025BZT 26256.87689682  .00000958  00000-0  83037-3 0  9990
2 31613  98.4491  53.1129 0343247  97.3029 266.7259 13.64263192955121

AllMySatでFENGYUN 1C DEBをリアルタイム追跡

Download on the App Store